Regional Weather Roundup
Issued by NWS Grand Forks, ND

Home | Current Version | Previous Version | Text Only | Print | Product List | Glossary Off
Versions: 1 2 3 4 5 6 7 8 9 10 11 12 13 14 15 16 17 18 19 20 21 22 23 24 25 26 27 28 29 30 31 32 33 34 35 36 37 38 39 40 41 42 43 44 45 46 47 48 49 50

791
ASUS43 KFGF 050831
RWRFGF
PRAIRIE TO PINES  WEATHER ROUNDUP
NATIONAL WEATHER SERVICE EASTERN NORTH DAKOTA/GRAND FORKS ND
300 AM CDT THU MAY 05 2016

 **SATELLITE DATA USED TO AUGMENT SKY COVER AT AUTOMATED STATIONS**
 *****  WEATHER ACROSS EASTERN NORTH DAKOTA  *****

CITY           SKY/WX    TMP DP  RH WIND       PRES   REMARKS
GRAND FORKS    PTCLDY    53  32  44 S9        29.85F
GRAND FRKS AFB PTCLDY    57  32  38 SW12      29.85F
DEVILS LAKE    CLEAR     56  44  64 SW10      29.87F
FARGO          PTCLDY    54  30  40 S10       29.91F
WAHPETON ARPT  SUNNY     46  28  49 S7        29.94F
$$

 ***** WEATHER ACROSS CENTRAL AND WESTERN NORTH DAKOTA  *****

CITY           SKY/WX    TMP DP  RH WIND       PRES   REMARKS
BISMARCK       CLEAR     61  45  55 SW7       29.93F
MINOT          CLEAR     66  41  40 SW14      29.85S
JAMESTOWN      CLEAR     52  40  63 SW7       29.91F
MINOT AFB      CLEAR     59  43  55 SW10      29.83S
GARRISON         N/A     54  42  64 SW3       29.90S
WILLISTON      CLEAR     52  41  66 CALM      29.86S
DICKINSON      CLEAR     55  42  61 S16       29.92S
HETTINGER      CLEAR     55  42  61 S9        29.98F
$$

 *****  OTHER AIRPORT OBSERVATIONS IN OUR AREA  *****

CITY           SKY/WX    TMP DP  RH WIND       PRES   REMARKS
WALHALLA       FAIR      64  41  42 SW16G24   29.78F
GRAFTON AIRPOR FAIR      50  34  53 S7        29.84F
VALLEY CITY AR FAIR      54  36  50 SW13      29.93F
CANDO          FAIR      59  43  55 SW15      29.86S
CAVALIER APRT  FAIR      52  37  58 SW9       29.79F
GWINNER        FAIR      50  34  53 SW9       29.94F
SHEYENNE NWR     N/A     45  34  66 SW5       29.95S
ROLLA          FAIR      59  41  51 SW16      29.84F
 ***** THE ABOVE OBSERVATIONS ARE NON NWS ARE NOT QUALITY
       CONTROLLED AND MAY MIS-REPORT RAIN FOR SNOW...
$$

  *****  WEATHER ACROSS NORTHERN MINNESOTA  *****

CITY           SKY/WX    TMP DP  RH WIND       PRES   REMARKS
FLAG ISLAND    LGT RAIN  46  37  71 S14       29.86F
WARROAD        CLOUDY    48  34  57 S8        29.88F
ROSEAU         CLOUDY    52  32  46 S12       29.87F
HALLOCK        CLEAR     52  27  37 S14       29.81F
THF RVR FALLS  CLEAR     50  28  43 S9        29.90S
BAUDETTE       PTCLDY    48  23  37 S8        29.91F
WASKISH        PTCLDY    48  25  40 S6        29.93F
CROOKSTON      CLEAR     54  30  40 S10       29.89F
STEPHEN NDAWN    N/A     52  30  43 S12         N/A
GREENBUSH NDAW   N/A     50  34  53 S7          N/A
$$
  *****  WEATHER ACROSS CENTRAL AND WEST MINNESOTA  *****

CITY           SKY/WX    TMP DP  RH WIND       PRES   REMARKS
FOSSTON        PTCLDY    52  28  40 SE8       29.93S
BEMIDJI        CLEAR     45  26  48 S3        29.94F
PARK RAPIDS    MOCLDY    46  29  51 CALM      29.96F
ELBOW LAKE     FAIR      47  35  62 SE7       29.97S
WADENA         CLEAR     45  30  57 CALM      29.96F
DETROIT LAKES  CLEAR     46  37  71 S6        29.95F
MOORHEAD       CLEAR     54  30  40 S8        29.93S
FERGUS FALLS   CLEAR     48  36  61 S6        29.94F
MORRIS MN      CLEAR     45  30  57 S3        29.97S
STAPLES        PTCLDY    39  30  70 CALM      29.97F
$$
  *****  WEATHER ELSEWHERE ACROSS MINNESOTA  *****

CITY           SKY/WX    TMP DP  RH WIND       PRES   REMARKS
DULUTH         CLOUDY    37  28  70 S6        29.99F
INTRNTL FALLS  PTCLDY    44  35  70 SE6       29.95R
ELY            CLOUDY    34  28  80 CALM      29.97S
CLOQUET        MOCLDY    37  30  75 SE5       29.98F
WHEATON        CLEAR     52  34  50 S6        29.97F
BRAINERD       CLOUDY    38  32  79 CALM      29.98F
HIBBING        CLOUDY    37  31  78 SE5       29.97F
ALEXANDRIA     CLEAR     48  30  49 SE7       29.99S
SAINT CLOUD    CLEAR     37  32  82 CALM      29.99F
MINNEAPOLIS    CLEAR     49  25  39 CALM      30.02R
$$

  *****  WEATHER ACROSS SOUTH DAKOTA  *****

CITY           SKY/WX    TMP DP  RH WIND       PRES   REMARKS
SIOUX FALLS    CLOUDY    43  36  76 CALM      30.03R
BROOKINGS      CLEAR     45  34  65 SE3       30.01F
WATERTOWN      CLEAR     43  35  73 CALM      30.00F
HURON          CLEAR     48  41  76 CALM      30.00F
SISSETON         N/A     49  33  54 SW8       29.95F
ABERDEEN       CLEAR     44  35  70 S7        29.97F
MITCHELL       CLEAR     48  43  82 CALM      30.02F
PIERRE         CLEAR     49  39  68 S3        30.00S
MOBRIDGE       CLEAR     52  45  77 SE6       29.95F
RAPID CITY     CLEAR     48  42  80 SE8       30.00F
$$

  *****  SOME WEATHER IN NEARBY STATES *****

CITY           SKY/WX    TMP DP  RH WIND       PRES   REMARKS
GLASGOW MT     PTCLDY    59  39  47 E13       29.82S
GREAT FALLS MT MOCLDY    55  39  54 CALM      29.90S
CHEYENNE WY    CLEAR     51  34  52 SW8       30.16F
SCOTTSBLUFF NE CLEAR     52  41  66 E13       30.08F
OMAHA NE       CLEAR     46  42  86 NW5       30.02S
DES MOINES IA  CLEAR     47  37  68 NW3       29.99S
DAVENPORT IA   CLEAR     40  33  76 N8        29.95R
CHICAGO IL     CLOUDY    43  33  68 N14G23    29.88S
EAU CLAIRE WI  CLEAR     34  30  85 CALM      30.00R
LA CROSSE WI   CLEAR     44  31  60 CALM      29.99S
$$

  *****  SOME NATIONAL WEATHER *****

CITY           SKY/WX    TMP DP  RH WIND       PRES   REMARKS
LA GUARDIA NY  CLOUDY    48  45  89 N10       29.70F
RALEIGH NC     PTCLDY    52  50  93 N3        29.55F
ATLANTA GA     CLEAR     52  49  89 NW10      29.73F
NEW ORLEANS LA CLEAR     64  56  75 W6        29.86F
OKLAHOMA CITY  CLEAR     54  43  66 NW6       30.04F
ALBUQUERQUE NM CLEAR     61  21  21 CALM      30.19F
SALT LAKE CITY CLOUDY    66  37  34 S10       29.95S
LOS ANGELES CA MOCLDY    61  54  77 NW7       29.93F
BOISE ID       MOCLDY    66  43  43 NE8       29.82F
SEATTLE WA     MOCLDY    53  47  79 CALM      30.03S
$$

*** WEATHER ACROSS MANITOBA...SASKATCHEWAN AND ONTARIO ***
                ***ONTARIO***

CITY           SKY/WX    TMP DP  RH WIND       PRES   REMARKS
GERALDTON      FOG       32  30  93 S6        29.96F VSB 1/2
THUNDER BAY    PTCLDY    30  28  93 NW3       29.99F
SIOUX LOOKOUT  LGT RAIN  43  32  65 SW7       29.89S
TORONTO        PTCLDY    46  41  81 N8        29.76R
BIG TROUT LK   CLEAR     39  28  65 SW8       29.67F
PICKLE LAKE    NOT AVBL
DRYDEN         CLOUDY    43  37  81 S15       29.85F
KENORA         MOCLDY    50  27  40 S12       29.88S THUNDER
$$
                *** MANITOBA***

CITY           SKY/WX    TMP DP  RH WIND       PRES   REMARKS
BRANDON        CLEAR     54  39  58 W7        29.77S
DAUPHIN        CLEAR     68  37  32 W9        29.67S
ISLAND LAKE    PTCLDY    45  32  61 S3        29.64F
PILOT MOUND      N/A     54  41  62 SW9         N/A
THE PAS        CLEAR     57  43  58 S5        29.53F
THOMPSON       PTCLDY    41  37  87 VRB2      29.59S
WINNIPEG       CLEAR     57  34  41 S16G23    29.75F
LYNN LAKE      CLEAR     50  37  62 E8        29.61R
CHURCHILL      MOCLDY    27  23  86 NE22      29.76R WCI  12
GILLAM         CLEAR     39  34  81 NW5       29.59R
$$
                ***SASKATCHEWAN***

CITY           SKY/WX    TMP DP  RH WIND       PRES   REMARKS
ESTEVAN        CLEAR     61  41  48 SW15      29.81F
KINDERSLEY     CLEAR     57  37  47 S9        29.72S
LLOYDMINSTER   CLEAR     57  37  47 N12       29.71R
PRINCE ALBERT  MOCLDY    55  37  50 SW2       29.67R
REGINA         CLEAR     54  36  50 SW6       29.77F
YORKTON        CLEAR     63  39  42 SW10      29.72S
N. BATTLEFORD  CLEAR     55  37  50 E8        29.72F
LA RONGE       PTCLDY    68  39  34 W12       29.57R
SASKATOON      MOCLDY    61  39  44 SW6       29.73S
SWIFT CURRENT  CLEAR     59  37  44 S15       29.79S
$$
NOTE: THESE ARE AUTOMATED STATIONS WITH LIMITED QUALITY CONTROL
      "FAIR" INDICATES FEW OR NO CLOUDS BELOW 12,000 FEET WITH NO
      SIGNIFICANT WEATHER AND/OR OBSTRUCTIONS TO VISIBILITY.
      SKY/WX - SKY CONDITION AND SIGNIFICANT WEATHER.
      TMP - AIR TEMPERATURE.    DP   - DEWPOINT TEMPERATURE.
      RH  - RELATIVE HUMIDITY.  PRES - PRESSURE.
      HX  - HEAT INDEX.         WCI  - WIND CHILL INDEX.
$




USA.gov is the U.S. government's official web portal to all federal, state and local government web resources and services.